Regional Weather Roundup
Issued by NWS Little Rock, AR

Home | Current Version | Previous Version | Graphics & Text | Print | Product List | Glossary On
Versions: 1 2 3 4 5 6 7 8 9 10 11 12 13 14 15 16 17 18 19 20 21 22 23 24 25 26 27 28 29 30 31 32 33 34 35 36 37 38 39 40 41 42 43 44 45 46 47 48 49 50
000
ASUS44 KLZK 281005
RWRLZK

WEATHER ROUNDUP FOR ARKANSAS
NATIONAL WEATHER SERVICE LITTLE ROCK AR
500 AM CDT FRI AUG 28 2015

NOTE: "FAIR" INDICATES FEW OR NO CLOUDS BELOW 12,000 FEET WITH NO
SIGNIFICANT WEATHER AND/OR OBSTRUCTIONS TO VISIBILITY.

ARZ001-003-010-029-281100-
NORTHWEST ARKANSAS

CITY           SKY/WX    TMP DP  RH WIND       PRES   REMARKS
FAYETTEVILLE   CLEAR     60  59  96 E7        30.04F
FORT SMITH     CLEAR     65  61  87 E5        30.03S
BENTONVILLE    CLEAR     63  57  82 SE6       30.05S
ROGERS         PTCLDY    63  60  90 SE7       30.05F
SILOAM SPGS    CLEAR     63  55  77 SE7       30.02F
HIGHFILL       CLEAR     62  60  93 S3        30.04F
$$

ARZ004-005-016-281100-
NORTH CENTRAL ARKANSAS

CITY           SKY/WX    TMP DP  RH WIND       PRES   REMARKS
BATESVILLE     CLEAR     59  57  94 CALM      30.06S
FLIPPIN        PTCLDY    57  54  88 CALM      30.06R
MTN HOME       PTCLDY    59  57  93 CALM      30.07R
$$

ARZ040-041-281100-
WEST CENTRAL ARKANSAS

CITY           SKY/WX    TMP DP  RH WIND       PRES   REMARKS
MENA           CLOUDY    61  59  94 CALM      30.06S VSB 3/4
MOUNT IDA      PTCLDY    59  57  93 CALM      30.04S FOG
$$

ARZ009-017-025-026-028-281100-
NORTHEAST ARKANSAS

CITY           SKY/WX    TMP DP  RH WIND       PRES   REMARKS
JONESBORO      PTCLDY    59  57  93 NE6       30.06S
NEWPORT        FOG       61  61 100 N3        30.07S VSB 3/4
WALNUT RIDGE   PTCLDY    59  55  88 N3        30.07S
BLYTHEVILLE    CLEAR     57  56  96 NE3       30.07R
$$

ARZ022-023-033-042-044-281100-
CENTRAL ARKANSAS

CITY           SKY/WX    TMP DP  RH WIND       PRES   REMARKS
LITTLE ROCK    PTCLDY    64  61  90 CALM      30.06R
N LITTLE ROCK    N/A     65  61  88 E3        30.06R
JACKSONVILLE   CLEAR     60  57  91 CALM      30.05R
SEARCY         CLEAR     58  58 100 CALM      30.07S
HOT SPRINGS    CLEAR     63  60  90 CALM      30.06S
RUSSELLVILLE   CLEAR     60  59  96 CALM      30.05S
$$

ARZ036-281100-
EAST ARKANSAS

CITY           SKY/WX    TMP DP  RH WIND       PRES   REMARKS
WEST MEMPHIS   CLEAR     60  60 100 CALM      30.04S
$$

ARZ050-053-066-070-073-281100-
SOUTHWEST ARKANSAS

CITY           SKY/WX    TMP DP  RH WIND       PRES   REMARKS
ARKADELPHIA    FAIR      59  59 100 CALM      30.05S
CAMDEN         CLEAR     57  55  94 CALM      30.04R FOG
TEXARKANA      CLEAR     63  61  93 E5        30.03F
EL DORADO      CLEAR     59  57  93 CALM      30.03F
DE QUEEN       FOG       59  59 100 CALM      30.02S VSB 1
$$

ARZ056-057-069-281100-
SOUTHEAST ARKANSAS

CITY           SKY/WX    TMP DP  RH WIND       PRES   REMARKS
PINE BLUFF     CLEAR     59  58  96 CALM      30.04S
STUTTGART      CLEAR     63  55  77 CALM      30.05R
MONTICELLO     CLEAR     60  60 100 CALM      30.03S

$$




USA.gov is the U.S. government's official web portal to all federal, state and local government web resources and services.